sat.trackr.live / text

‹ back to catalog

STARLINK-34205

NORAD 64741 · 2025-144T

PAYLOAD ACTIVE UNKNOWN

§ Identity

Operator
Country
US
Launch date
2025-07-02
Launch site
AFETR
Launch vehicle
Mass (kg)
RCS (m²)

Purposes: comms

External: N2YO · Heavens-Above · Gunter

§ Orbital elements

Epoch: 2026-05-24T12:48:27.885312Z

Period
94.11 min
Inclination
53.1585°
Eccentricity
0.0000983
Mean motion
15.30200693 rev/d
Perigee alt
474.5 km
Apogee alt
475.9 km
Semi-major
6,853.4 km
B*
2.6100e-4
RAAN
188.7726°
Arg perigee
77.1968°
Mean anomaly
282.9143°
Rev number
5,132

§ Raw data

STARLINK-342051 64741U 25144T   26144.53365608  .00007379  00000+0  26100-3 0  99982 64741  53.1585 188.7726 0000983  77.1968 282.9143 15.30200693 51327

JSON: /api/v1/satellites/64741 · /tle

For live sub-satellite position, see the globe view (requires WebGL).

§ Visibility from observer

Set your observer location to see the next 7 days of passes ≥ 10°. The values pass through the URL so the page stays shareable.

No JS? Fill the form by hand. The geolocation button needs JavaScript.